Location: Unspecified
(44.0704°N, 88.6889°W)
Time: 09:26:50
(UTC+02:00)

Altair - Pass Details

Date: 25 June 2019
Orbit: 1501 x 1683 km, 47.2° (Epoch: 19 July)

Event Time Altitude Azimuth Distance (km) Brightness Sun altitude
Rises 07:42:00 0° 289° (WNW) 4,798 10.4 -22.4°
Reaches altitude 10° 07:45:03 10° 290° (WNW) 3,836 9.8 -22.5°
Maximum altitude 07:54:56 86° 203° (SSW) 1,660 7.5 -22.5°
Drops below altitude 10° 08:05:06 10° 116° (ESE) 3,935 9.4 -22.5°
Sets 08:08:16 0° 116° (ESE) 4,927 9.9 -22.5°
